TimeEST,TemperatureF,Dew PointF,Humidity,Sea Level PressureIn,VisibilityMPH,Wind Direction,Wind SpeedMPH,Gust SpeedMPH,PrecipitationIn,Events,Conditions,WindDirDegrees,DateUTC
1:53 AM,33.1,23.0,66,29.91,10.0,NNW,18.4,-,N/A,,Overcast,330,2012-12-30 06:53:00
2:53 AM,33.1,24.1,70,29.94,10.0,WNW,16.1,-,N/A,,Overcast,300,2012-12-30 07:53:00
3:53 AM,33.1,25.0,72,29.97,10.0,WNW,15.0,-,N/A,,Overcast,290,2012-12-30 08:53:00
4:53 AM,33.1,23.0,66,29.98,10.0,WNW,23.0,28.8,N/A,,Overcast,300,2012-12-30 09:53:00
5:53 AM,33.1,23.0,66,30.01,10.0,WNW,16.1,-,N/A,,Overcast,300,2012-12-30 10:53:00
6:53 AM,33.1,21.0,61,30.06,10.0,WNW,17.3,-,N/A,,Overcast,290,2012-12-30 11:53:00
7:53 AM,32.0,23.0,69,30.11,10.0,WNW,13.8,25.3,0.00,,Overcast,300,2012-12-30 12:53:00
8:53 AM,32.0,21.0,64,30.14,10.0,NW,29.9,44.9,N/A,,Overcast,310,2012-12-30 13:53:00
9:53 AM,32.0,21.9,66,30.19,10.0,WNW,26.5,32.2,N/A,,Overcast,300,2012-12-30 14:53:00
10:53 AM,34.0,19.9,56,30.21,10.0,WNW,29.9,36.8,N/A,,Scattered Clouds,300,2012-12-30 15:53:00
11:53 AM,34.0,21.9,61,30.21,10.0,WNW,26.5,35.7,N/A,,Overcast,300,2012-12-30 16:53:00
12:53 PM,34.0,21.0,59,30.21,10.0,WNW,25.3,39.1,N/A,,Overcast,300,2012-12-30 17:53:00
1:53 PM,34.0,21.0,59,30.21,10.0,WNW,24.2,31.1,N/A,,Mostly Cloudy,300,2012-12-30 18:53:00
2:53 PM,33.1,21.0,61,30.25,10.0,WNW,19.6,32.2,N/A,,Mostly Cloudy,300,2012-12-30 19:53:00
3:53 PM,33.1,21.0,61,30.28,10.0,NW,18.4,-,N/A,,Overcast,310,2012-12-30 20:53:00
4:53 PM,33.1,19.9,59,30.30,10.0,NW,17.3,-,N/A,,Overcast,310,2012-12-30 21:53:00
5:53 PM,32.0,19.9,61,30.32,10.0,NW,6.9,-,N/A,,Overcast,320,2012-12-30 22:53:00
6:53 PM,30.0,19.9,66,30.32,10.0,WNW,10.4,-,N/A,,Mostly Cloudy,300,2012-12-30 23:53:00
7:53 PM,28.9,18.0,64,30.33,10.0,NW,8.1,-,N/A,,Clear,310,2012-12-31 00:53:00
8:53 PM,28.9,18.0,64,30.33,10.0,Calm,Calm,-,N/A,,Scattered Clouds,0,2012-12-31 01:53:00
9:53 PM,28.0,18.0,66,30.34,10.0,West,8.1,-,N/A,,Scattered Clouds,260,2012-12-31 02:53:00
10:53 PM,27.0,17.1,66,30.35,10.0,West,6.9,-,N/A,,Partly Cloudy,260,2012-12-31 03:53:00
11:53 PM,25.0,17.1,72,30.33,10.0,South,5.8,-,N/A,,Clear,190,2012-12-31 04:53:00